Location: Bemmer
(51.5498°N, 5.6249°E)
Time: 12:46:24
(UTC+00:00)

ARIANE 5 R/B - Pass Details

Date: 03 March 2021
Orbit: 621 x 655 km, 98.2° (Epoch: 15 April)

Event Time Altitude Azimuth Distance (km) Brightness Sun altitude
Exits shadow 20:21:41 30° 6° (N) 1,181 4.1 -28.0°
Drops below altitude 10° 20:24:06 10° 353° (N) 2,076 5.6 -28.3°
Sets 20:26:21 0° 349° (N) 2,994 6.6 -28.7°
